EW4496 Weather Reports


Display with metric or nautical units.
time (UTC)temp
F
wind
direction
speed
MPH
gust
MPH
rain 1hr
in
rain 24hr
in
rain mn
in
humidity
%
barometer
mb
20260503050044 57 278 0.0 3.0 0.00 0.00 0.00 79 1010.5
20260503044544 58 308 0.0 1.0 0.00 0.00 0.00 79 1010.3
20260503043043 58 285 0.0 0.0 0.00 0.00 0.00 79 1010.1
20260503041543 59 285 0.0 0.0 0.00 0.00 0.00 77 1009.9
20260503040058 60 333 0.0 1.0 0.00 0.00 0.00 75 1009.8
20260503034558 60 309 0.0 2.0 0.00 0.00 0.00 74 1009.6
20260503033101 61 299 0.0 5.0 0.00 0.00 0.00 72 1009.4
20260503031558 62 290 0.0 6.0 0.00 0.00 0.00 70 1009.3
20260503030058 63 301 0.0 4.0 0.00 0.00 0.00 70 1009.2
20260503024605 64 309 0.0 4.0 0.00 0.00 0.00 70 1009.2
20260503023103 65 316 0.0 5.0 0.00 0.00 0.00 68 1009.1
20260503021601 66 309 0.0 3.0 0.00 0.00 0.00 66 1009.0
20260503020101 67 300 0.0 2.0 0.00 0.00 0.00 63 1009.0
20260503014623 67 321 0.0 6.0 0.00 0.00 0.00 61 1009.0
20260503013059 69 304 1.0 6.0 0.00 0.00 0.00 59 1009.1
20260503011513 69 325 1.0 6.0 0.00 0.00 0.00 57 1009.0
20260503010016 70 264 0.0 6.0 0.00 0.00 0.00 58 1009.0
20260503004523 70 231 1.0 5.0 0.00 0.00 0.00 57 1008.9
20260503003014 71 318 0.0 5.0 0.00 0.00 0.00 58 1009.1
20260503001512 71 335 0.0 7.0 0.00 0.00 0.00 57 1009.1
20260503000012 72 328 1.0 7.0 0.00 0.00 0.00 57 1009.2
20260502234512 72 13 0.0 7.0 0.00 0.00 0.00 53 1009.3
20260502233013 73 273 0.0 4.0 0.00 0.00 0.00 52 1009.4
20260502231516 73 331 1.0 8.0 0.00 0.00 0.00 52 1009.5
20260502230027 73 304 2.0 7.0 0.00 0.00 0.00 53 1009.7
20260502224548 73 276 0.0 3.0 0.00 0.00 0.00 53 1009.9
20260502223043 73 325 1.0 7.0 0.00 0.00 0.00 55 1010.0
20260502221542 73 308 0.0 5.0 0.00 0.00 0.00 55 1010.3
20260502220043 73 4 0.0 8.0 0.00 0.00 0.00 55 1010.5
20260502214542 73 297 0.0 6.0 0.00 0.00 0.00 56 1010.7
20260502213042 73 326 1.0 6.0 0.00 0.00 0.00 54 1010.9
20260502211553 72 296 1.0 6.0 0.00 0.00 0.00 56 1011.2
20260502210042 72 285 1.0 6.0 0.00 0.00 0.00 57 1011.2
20260502204542 71 316 0.0 7.0 0.00 0.00 0.00 59 1011.4
20260502203041 71 268 0.0 3.0 0.00 0.00 0.00 61 1011.5
20260502201557 70 292 0.0 6.0 0.00 0.00 0.00 62 1011.7
20260502200056 68 328 0.0 5.0 0.00 0.00 0.00 64 1011.8
20260502194606 68 296 0.0 6.0 0.00 0.00 0.00 64 1011.9
20260502193056 66 248 1.0 6.0 0.00 0.00 0.00 67 1012.0
20260502191600 64 163 1.0 5.0 0.00 0.00 0.00 70 1012.1
20260502190058 63 319 0.0 7.0 0.00 0.00 0.00 72 1012.4
20260502184611 63 270 1.0 6.0 0.00 0.00 0.00 71 1012.3
20260502183111 63 283 1.0 7.0 0.00 0.00 0.00 71 1012.2
20260502181610 64 283 1.0 7.0 0.00 0.00 0.00 70 1012.2
20260502180110 64 337 0.0 5.0 0.00 0.00 0.00 72 1012.1
20260502163049 61 274 0.0 0.0 0.00 0.00 0.00 78 1012.0
20260502161514 60 263 0.0 0.0 0.00 0.00 0.00 79 1011.9
20260502151528 56 276 0.0 0.0 0.00 0.00 0.00 87 1011.6
20260502123109 52 221 0.0 0.0 0.00 0.00 0.00 91 1010.4
20260502121609 52 221 0.0 0.0 0.00 0.00 0.00 91 1010.4
20260502120111 52 219 0.0 0.0 0.00 0.00 0.00 90 1010.5
20260502114612 52 219 0.0 0.0 0.00 0.00 0.00 89 1010.5
20260502113109 53 221 0.0 0.0 0.00 0.00 0.00 88 1010.7
20260502111609 53 270 0.0 0.0 0.00 0.00 0.00 87 1010.6
20260502110109 53 270 0.0 0.0 0.00 0.00 0.00 87 1010.7
20260502104608 54 269 0.0 0.0 0.00 0.00 0.00 85 1010.7
20260502103019 54 278 0.0 0.0 0.00 0.00 0.00 85 1010.6
20260502101539 54 229 0.0 0.0 0.00 0.00 0.00 86 1010.6
20260502091519 55 263 0.0 0.0 0.00 0.00 0.00 85 1010.8
20260502070058 58 237 0.0 4.0 0.00 0.00 0.00 82 1011.2
20260502064551 59 210 0.0 2.0 0.00 0.00 0.00 82 1011.1
20260502063055 59 174 0.0 3.0 0.00 0.00 0.00 82 1011.0
20260502061609 59 217 0.0 1.0 0.00 0.00 0.00 82 1011.0
20260502060104 60 219 0.0 0.0 0.00 0.00 0.00 81 1011.0
20260502054602 61 221 0.0 0.0 0.00 0.00 0.00 81 1011.1
20260502053102 61 212 0.0 0.0 0.00 0.00 0.00 82 1011.0
20260502051502 62 213 0.0 0.0 0.00 0.00 0.00 80 1010.9